Location: Grums
(59.3529°N, 13.1129°E)
Time: 16:44:15
(UTC+01:00)

SEEDS - Visible Passes

Search period start: 28 November 2021 00:00
Search period end: 08 December 2021 00:00
Orbit: 583 x 602 km, 97.6° (Epoch: 28 November)

Date Brightness Start Highest point End Pass type
(mag) Time Alt. Az. Time Alt. Az. Time Alt. Az.
28 Nov ? 04:24:23 10° NNE 04:27:49 38° ENE 04:27:49 38° ENE visible
28 Nov ? 06:00:06 10° N 06:03:56 37° WNW 06:04:24 35° WNW visible
28 Nov ? 07:38:23 10° NW 07:38:30 10° NW 07:38:36 10° NW visible
28 Nov ? 17:01:37 10° SW 17:04:23 17° W 17:07:10 10° NW visible
29 Nov ? 04:33:11 10° NNE 04:36:31 42° ENE 04:36:31 42° ENE visible
29 Nov ? 06:09:01 10° N 06:12:44 32° WNW 06:13:06 31° WNW visible
29 Nov ? 17:11:00 10° WSW 17:13:21 15° W 17:15:43 10° NW visible
30 Nov ? 04:42:00 10° NNE 04:45:14 45° NE 04:45:14 45° NE visible
30 Nov ? 06:17:56 10° N 06:21:30 28° WNW 06:21:48 28° WNW visible
30 Nov ? 17:20:32 10° WSW 17:22:20 12° W 17:24:07 10° WNW visible
01 Dec ? 03:16:48 10° ENE 03:17:22 11° ENE 03:17:22 11° ENE visible
01 Dec ? 04:50:49 10° NNE 04:53:57 47° NE 04:53:57 47° NE visible
01 Dec ? 06:26:52 10° N 06:30:16 25° NW 06:30:31 24° WNW visible
01 Dec ? 17:30:30 10° W 17:31:19 10° W 17:32:08 10° WNW visible
02 Dec ? 03:25:12 10° NE 03:26:05 12° ENE 03:26:05 12° ENE visible
02 Dec ? 04:59:38 10° NNE 05:02:40 46° NNE 05:02:40 46° NNE visible
02 Dec ? 06:35:50 10° N 06:39:01 22° NW 06:39:15 22° WNW visible
03 Dec ? 03:33:44 10° NE 03:34:49 14° ENE 03:34:49 14° ENE visible
03 Dec ? 05:08:29 10° NNE 05:11:24 44° NNE 05:11:24 44° NNE visible
03 Dec ? 06:44:48 10° N 06:47:47 19° NW 06:48:00 19° WNW visible
03 Dec ? 16:08:35 10° SSW 16:12:32 40° W 16:16:29 10° NNW visible
04 Dec ? 03:42:21 10° NE 03:43:34 15° NE 03:43:34 15° NE visible
04 Dec ? 05:17:20 10° NNE 05:20:09 42° N 05:20:09 42° N visible
04 Dec ? 06:53:48 10° N 06:56:30 17° NW 06:56:44 17° NW visible
04 Dec ? 16:17:36 10° SSW 16:21:25 34° W 16:25:15 10° NNW visible
05 Dec ? 03:51:01 10° NE 03:52:19 16° NE 03:52:19 16° NE visible
05 Dec ? 05:26:12 10° NNE 05:28:54 38° N 05:28:54 38° N visible
05 Dec ? 07:02:49 10° NNW 07:05:14 15° NW 07:05:30 15° NW visible
05 Dec ? 16:26:40 10° SSW 16:30:19 29° W 16:34:00 10° NNW visible
06 Dec ? 03:59:43 10° NE 04:01:05 17° NE 04:01:05 17° NE visible
06 Dec ? 05:35:04 10° N 05:37:40 35° N 05:37:40 35° N visible
06 Dec ? 07:11:52 10° NNW 07:13:58 14° NW 07:14:16 14° NW visible
06 Dec ? 16:35:46 10° SSW 16:39:14 25° W 16:42:44 10° NW visible
07 Dec ? 04:08:27 10° NNE 04:09:51 18° NE 04:09:51 18° NE visible
07 Dec ? 05:43:57 10° N 05:46:26 32° NNW 05:46:26 32° NNW visible
07 Dec ? 07:21:00 10° NNW 07:22:40 12° NW 07:23:01 12° NW visible
07 Dec ? 16:44:55 10° SW 16:48:10 22° W 16:51:25 10° NW visible
